Jamestown, NY

8:26 AM EST on December 13, 2019 (GMT -0500)
Chautauqua County-Jamestown

Weather History for KJHW - October, 2019

Change the Weather History Date:

Saturday, October 19, 2019

  Actual Average Record
Temperature  
Mean Temperature 44 °F -  
Max Temperature 59 °F 57 °F 76 °F (1961)
Min Temperature 30 °F 32 °F 19 °F (1974)
Degree Days  
Heating Degree Days 22    
Moisture  
Dew Point 34 °F    
Average Humidity 89    
Maximum Humidity 100    
Minimum Humidity 44    
Precipitation  
Precipitation 0.00 in - - ()
Sea Level Pressure  
Sea Level Pressure 30.05 in    
Wind  
Wind Speed 4 mph (South)    
Max Wind Speed 10 mph    
Max Gust Speed -    
Visibility 5 miles    
Events Fog    
Averages and records for this station are not official NWS values.
T = Trace of Precipitation, MM = Missing Value Source: NWS Daily Summary

Daily Weather History Graph

Daily Weather History Graph

Search for Another Location

Airport or City:

Astronomy

Oct. 19, 2019 Rise Set
Actual Time 7:34 AM EDT 6:29 PM EDT
Civil Twilight 7:05 AM EDT 6:57 PM EDT
Nautical Twilight 6:33 AM EDT 7:30 PM EDT
Astronomical Twilight 6:00 AM EDT 8:02 PM EDT
Moon 10:32 PM EDT (10/19) 1:09 PM EDT (10/19)
Length of Visible Light 11h 52m
Length of Day
10h 55m
Waning Gibbous, 70% of the Moon is Illuminated
Oct 19
Waning Gibbous
Oct 21
Last Quarter
Oct 27
New
Nov 4
First Quarter
Nov 12
Full

Hourly Weather History & Observations

Time (EDT) Temp. Windchill Dew Point Humidity Pressure Visibility Wind Dir Wind Speed Gust Speed Precip Events Conditions
12:56 AM 36.0 °F 32.1 °F 35.1 °F 97% 30.10 in 10.0 mi SSW 4.6 mph - N/A   Clear
1:56 AM 36.0 °F - 35.1 °F 97% 30.09 in 10.0 mi Calm Calm - N/A   Clear
2:56 AM 34.0 °F - 33.1 °F 96% 30.09 in 2.0 mi Calm Calm - N/A   Clear
3:02 AM 33.8 °F 30.8 °F 33.8 °F 100% 30.04 in 1.0 mi South 3.5 mph - N/A   Clear
3:07 AM 33.8 °F - 33.8 °F 100% 30.04 in 0.5 mi Calm Calm - N/A Fog Fog
3:18 AM 33.8 °F 30.8 °F 33.8 °F 100% 30.04 in 1.0 mi South 3.5 mph - N/A   Clear
3:25 AM 33.8 °F 30.8 °F 33.8 °F 100% 30.04 in 2.0 mi South 3.5 mph - N/A   Clear
3:29 AM 33.8 °F 29.6 °F 33.8 °F 100% 30.04 in 1.0 mi South 4.6 mph - N/A   Clear
3:40 AM 33.8 °F 30.8 °F 33.8 °F 100% 30.04 in 2.0 mi South 3.5 mph - N/A   Clear
3:47 AM 33.8 °F 30.8 °F 33.8 °F 100% 30.04 in 5.0 mi SSW 3.5 mph - N/A   Clear
3:56 AM 34.0 °F 31.0 °F 34.0 °F 100% 30.09 in 7.0 mi South 3.5 mph - N/A   Clear
4:04 AM 33.8 °F 29.6 °F 33.8 °F 100% 30.04 in 1.0 mi South 4.6 mph - N/A   Clear
4:14 AM 32.0 °F 27.5 °F 32.0 °F 100% 30.04 in 2.0 mi South 4.6 mph - N/A   Clear
4:19 AM 32.0 °F 26.4 °F 32.0 °F 100% 30.04 in 1.2 mi South 5.8 mph - N/A   Partly Cloudy
4:22 AM 32.0 °F 26.4 °F 32.0 °F 100% 30.05 in 0.8 mi South 5.8 mph - N/A   Mist
4:31 AM 32.0 °F 27.5 °F 32.0 °F 100% 30.05 in 0.5 mi South 4.6 mph - N/A Fog Fog
4:40 AM 30.2 °F 25.4 °F 30.2 °F 100% 30.05 in 0.2 mi South 4.6 mph - N/A Fog Light Freezing Fog
4:56 AM 30.9 °F 26.2 °F 30.9 °F 100% 30.11 in 0.2 mi South 4.6 mph - N/A Fog Light Freezing Fog
5:04 AM 32.0 °F 27.5 °F 32.0 °F 100% 30.06 in 0.5 mi South 4.6 mph - N/A Fog Fog
5:15 AM 32.0 °F 27.5 °F 32.0 °F 100% 30.05 in 0.8 mi South 4.6 mph - N/A   Overcast
5:37 AM 32.0 °F 27.5 °F 32.0 °F 100% 30.06 in 0.5 mi South 4.6 mph - N/A Fog Fog
5:53 AM 32.0 °F 27.5 °F 32.0 °F 100% 30.06 in 0.8 mi South 4.6 mph - N/A   Overcast
5:56 AM 32.0 °F 27.5 °F 32.0 °F 100% 30.12 in 0.8 mi South 4.6 mph - N/A   Overcast
6:04 AM 32.0 °F 27.5 °F 32.0 °F 100% 30.06 in 0.5 mi South 4.6 mph - N/A Fog Fog
6:28 AM 32.0 °F 27.5 °F 32.0 °F 100% 30.06 in 1.0 mi South 4.6 mph - N/A   Overcast
6:32 AM 32.0 °F 27.5 °F 32.0 °F 100% 30.06 in 2.0 mi South 4.6 mph - N/A   Overcast
6:40 AM 33.8 °F 30.8 °F 32.0 °F 93% 30.06 in 7.0 mi South 3.5 mph - N/A   Overcast
6:49 AM 33.8 °F 29.6 °F 33.8 °F 100% 30.06 in 9.0 mi South 4.6 mph - N/A   Overcast
6:56 AM 33.1 °F 28.7 °F 33.1 °F 100% 30.11 in 10.0 mi South 4.6 mph - N/A   Overcast
7:14 AM 32.0 °F 28.7 °F 32.0 °F 100% 30.05 in 10.0 mi South 3.5 mph - N/A   Scattered Clouds
7:26 AM 32.0 °F 26.4 °F 30.2 °F 93% 30.06 in 1.8 mi South 5.8 mph - N/A   Clear
7:56 AM 32.0 °F - 32.0 °F 100% 30.11 in 0.5 mi Calm Calm - N/A Fog Fog
7:59 AM 32.0 °F - 32.0 °F 100% 30.06 in 1.0 mi Calm Calm - N/A   Clear
8:02 AM 32.0 °F - 32.0 °F 100% 30.05 in 2.5 mi Calm Calm - N/A   Clear
8:09 AM 33.8 °F - 33.8 °F 100% 30.05 in 9.0 mi Calm Calm - N/A   Clear
8:56 AM 35.1 °F 31.0 °F 35.1 °F 100% 30.12 in 6.0 mi South 4.6 mph - N/A   Clear
9:56 AM 39.9 °F 36.7 °F 39.0 °F 97% 30.12 in 10.0 mi South 4.6 mph - N/A   Clear
10:56 AM 43.0 °F 39.5 °F 37.9 °F 82% 30.12 in 10.0 mi SSE 5.8 mph - N/A   Clear
11:56 AM 46.9 °F - 37.9 °F 71% 30.10 in 10.0 mi SSE 8.1 mph - N/A   Clear
12:56 PM 51.1 °F - 39.0 °F 63% 30.07 in 10.0 mi ESE 5.8 mph - N/A   Clear
1:56 PM 54.0 °F - 41.0 °F 62% 30.04 in 10.0 mi Variable 6.9 mph - N/A   Clear
2:56 PM 55.0 °F - 39.0 °F 55% 30.01 in 10.0 mi Variable 4.6 mph - N/A   Clear
3:56 PM 55.9 °F - 35.1 °F 45% 30.00 in 10.0 mi ESE 6.9 mph - N/A   Clear
4:56 PM 57.9 °F - 36.0 °F 44% 29.99 in 10.0 mi Calm Calm - N/A   Clear
5:56 PM 55.0 °F - 37.9 °F 53% 29.98 in 10.0 mi NNW 3.5 mph - N/A   Clear
6:56 PM 53.1 °F - 37.9 °F 57% 29.98 in 10.0 mi Calm Calm - N/A   Clear
7:56 PM 52.0 °F - 34.0 °F 50% 29.98 in 10.0 mi SSE 3.5 mph - N/A   Clear
8:56 PM 48.9 °F - 34.0 °F 56% 29.95 in 10.0 mi SSE 4.6 mph - N/A   Clear
9:56 PM 46.9 °F - 36.0 °F 66% 29.94 in 10.0 mi South 6.9 mph - N/A   Clear
10:56 PM 46.9 °F - 37.9 °F 71% 29.95 in 10.0 mi South 10.4 mph - N/A   Clear
11:56 PM 48.0 °F - 39.0 °F 71% 29.95 in 10.0 mi South 8.1 mph - N/A   Clear